2022年7月2日

时间 代码 天气 温度 能见度 天花板 METAR/SPECI
10:00 上午
V
61 °F 6¼ mi+ - Var Var 1 kt METAR LFHP 020800Z AUTO VRB01KT CAVOK 16/09 Q1023
9:30 上午
V
59 °F 6¼ mi+ - Var Var 2 kt METAR LFHP 020730Z AUTO VRB02KT CAVOK 15/07 Q1023
9:00 上午
V
57 °F 6¼ mi+ - Var Var 2 kt METAR LFHP 020700Z AUTO VRB02KT CAVOK 14/08 Q1023

2022年7月1日

时间 代码 天气 温度 能见度 天花板 METAR/SPECI
9:00 下午
V
61 °F 6¼ mi+ - 040° 040° 4 kt METAR LFHP 011900Z AUTO 04004KT 9999 FEW044 16/08 Q1022
8:30 下午
V
63 °F 6¼ mi+ - 050° 050° 7 kt METAR LFHP 011830Z AUTO 05007KT CAVOK 17/08 Q1021
8:00 下午
V
63 °F 6¼ mi+ - 070° 070° 7 kt METAR LFHP 011800Z AUTO 07007KT CAVOK 17/08 Q1021
7:30 下午
V
64 °F 6¼ mi+ - 070° 070° 9 kt METAR LFHP 011730Z AUTO 07009KT CAVOK 18/08 Q1021
7:00 下午
V
66 °F 6¼ mi+ - 080° 080° 6 kt METAR LFHP 011700Z AUTO 08006KT 040V110 CAVOK 19/07 Q1021
6:30 下午
V
68 °F 6¼ mi+ - 060° 060° 8 kt METAR LFHP 011630Z AUTO 06008KT 040V100 CAVOK 20/08 Q1021
6:00 下午
V
68 °F 6¼ mi+ - 060° 060° 8 kt METAR LFHP 011600Z AUTO 06008KT 020V090 CAVOK 20/07 Q1021
5:30 下午
V
66 °F 6¼ mi+ - 080° 080° 6 kt METAR LFHP 011530Z AUTO 08006KT 020V130 CAVOK 19/07 Q1021
5:00 下午
V
68 °F 6¼ mi+ - 040° 040° 8 kt METAR LFHP 011500Z AUTO 04008KT 360V110 CAVOK 20/07 Q1021
4:30 下午
V
66 °F 6¼ mi+ - 020° 020° 8 kt METAR LFHP 011430Z AUTO 02008KT 330V070 CAVOK 19/07 Q1021
4:00 下午
V
66 °F 6¼ mi+ - Var Var 6 kt METAR LFHP 011400Z AUTO VRB06KT 9999 FEW048 19/08 Q1021
3:30 下午
V
66 °F 6¼ mi+ 4.900 ft 070° 070° 7 kt METAR LFHP 011330Z AUTO 07007KT 010V140 9999 BKN049 19/07 Q1021
3:00 下午
V
64 °F 6¼ mi+ 4.800 ft Var Var 4 kt METAR LFHP 011300Z AUTO VRB04KT 9999 BKN048 18/08 Q1021
2:30 下午
V
64 °F 6¼ mi+ 4.700 ft 070° 070° 7 kt METAR LFHP 011230Z AUTO 07007KT 030V130 9999 FEW007 BKN047 18/07 Q1021
1:30 下午
V
63 °F 6¼ mi+ - Var Var 6 kt METAR LFHP 011130Z AUTO VRB06KT 9999 FEW046 17/05 Q1021
1:00 下午
V
63 °F 6¼ mi+ 4.400 ft 010° 010° 7 kt METAR LFHP 011100Z AUTO 01007KT 270V080 9999 BKN044 17/06 Q1021
12:30 下午
V
63 °F 6¼ mi+ 4.100 ft 030° 030° 7 kt METAR LFHP 011030Z AUTO 03007KT 330V090 9999 OVC041 17/07 Q1021
12:00 下午
V
61 °F 6¼ mi+ 3.900 ft 010° 010° 5 kt METAR LFHP 011000Z AUTO 01005KT 310V050 9999 FEW001 BKN039 16/06 Q1021
11:30 上午
V
59 °F 6¼ mi+ 3.800 ft 340° 340° 8 kt METAR LFHP 010930Z AUTO 34008KT 280V060 9999 OVC038 15/06 Q1021
11:00 上午
V
59 °F 6¼ mi+ 3.700 ft Var Var 6 kt METAR LFHP 010900Z AUTO VRB06KT 9999 BKN037 15/06 Q1021
10:30 上午
V
59 °F 6¼ mi+ 3.600 ft 020° 020° 10 kt METAR LFHP 010830Z AUTO 02010KT 350V080 9999 SCT028 BKN036 15/06 Q1021
10:00 上午
V
57 °F 6¼ mi+ - 020° 020° 7 kt METAR LFHP 010800Z AUTO 02007KT 9999 SCT023 14/07 Q1021
9:30 上午
V
55 °F 6¼ mi+ 3.200 ft 020° 020° 7 kt METAR LFHP 010730Z AUTO 02007KT 320V040 9999 SCT021 BKN032 BKN042 13/09 Q1021
9:00 上午
M
54 °F 6¼ mi+ 1.800 ft 360° 360° 8 kt METAR LFHP 010700Z AUTO 36008KT 9999 BKN018 BKN029 BKN036 12/08 Q1021

2022年6月30日

时间 代码 天气 温度 能见度 天花板 METAR/SPECI
9:00 下午
I
52 °F 6¼ mi+ 500 ft 100° 100° 3 kt METAR LFHP 301900Z AUTO 10003KT 9999 BKN005/// BKN011/// BKN021/// ///TCU 11/10 Q1019
8:30 下午
I
52 °F 1½ mi 1.200 ft 070° 070° 5 kt METAR LFHP 301830Z AUTO 07005KT 030V100 2400 DZ BR SCT006/// BKN012/// OVC020/// ///TCU 11/10 Q1019
8:00 下午
M
54 °F 3⅛ mi 1.400 ft 040° 040° 5 kt METAR LFHP 301800Z AUTO 04005KT 330V060 5000 -DZ BR OVC014 12/10 Q1018
7:30 下午
M
54 °F 6¼ mi+ 1.300 ft 360° 360° 5 kt METAR LFHP 301730Z AUTO 36005KT 9999 BKN013 OVC019 12/10 Q1018
7:00 下午
M
55 °F 6¼ mi+ 1.400 ft 010° 010° 7 kt METAR LFHP 301700Z AUTO 01007KT 340V040 9999 OVC014 13/10 Q1018
6:30 下午
M
54 °F 6¼ mi+ 1.500 ft 020° 020° 9 kt METAR LFHP 301630Z AUTO 02009KT 350V050 9999 OVC015 12/10 Q1017
6:00 下午
M
57 °F 6¼ mi+ 1.600 ft 330° 330° 9 kt METAR LFHP 301600Z AUTO 33009KT 300V360 9999 OVC016 14/10 Q1017
5:30 下午
V
59 °F 6¼ mi+ 3.300 ft 300° 300° 11 kt METAR LFHP 301530Z AUTO 30011KT 260V340 9999 FEW017 BKN033 BKN110 15/11 Q1016
5:00 下午
V
63 °F 6¼ mi+ 3.300 ft 340° 340° 12 kt METAR LFHP 301500Z AUTO 34012KT 9999 SCT019/// BKN033/// OVC170/// ///CB 17/12 Q1015
4:30 下午
V
64 °F 6¼ mi+ - 300° 300° 11 kt METAR LFHP 301430Z AUTO 30011KT 250V330 9999 VCTS ///CB 18/12 Q1015
4:00 下午
V
66 °F 6¼ mi+ - 300° 300° 12 kt METAR LFHP 301400Z AUTO 30012KT 260V330 9999 ///TCU 19/13 Q1015
3:30 下午
V
70 °F 6¼ mi+ 4.700 ft 300° 300° 15 kt METAR LFHP 301330Z AUTO 30015KT 270V330 9999 BKN047/// BKN056/// BKN170/// ///CB 21/13 Q1015
3:00 下午
V
72 °F 6¼ mi+ 4.900 ft 290° 290° 12 kt METAR LFHP 301300Z AUTO 29012KT 250V320 9999 BKN049 OVC058 22/12 Q1014
2:30 下午
V
75 °F 6¼ mi+ - 250° 250° 10 - 22 kt METAR LFHP 301230Z AUTO 25010G22KT 200V310 CAVOK 24/12 Q1014
2:00 下午
V
75 °F 6¼ mi+ - 240° 240° 12 kt METAR LFHP 301200Z AUTO 24012KT 200V280 CAVOK 24/11 Q1014
1:30 下午
V
75 °F 6¼ mi+ - 240° 240° 11 kt METAR LFHP 301130Z AUTO 24011KT 200V300 CAVOK 24/12 Q1014
1:00 下午
V
75 °F 6¼ mi+ - 230° 230° 8 kt METAR LFHP 301100Z AUTO 23008KT 110V280 CAVOK 24/12 Q1014
12:30 下午
V
75 °F 6¼ mi+ - 230° 230° 7 kt METAR LFHP 301030Z AUTO 23007KT 170V280 CAVOK 24/12 Q1014
12:00 下午
V
73 °F 6¼ mi+ - 240° 240° 9 kt METAR LFHP 301000Z AUTO 24009KT 200V280 CAVOK 23/12 Q1013
11:30 上午
V
72 °F 6¼ mi+ - 050° 050° 3 kt METAR LFHP 300930Z AUTO 05003KT 340V110 CAVOK 22/13 Q1013
11:00 上午
V
72 °F 6¼ mi+ - Var Var 3 kt METAR LFHP 300900Z AUTO VRB03KT CAVOK 22/12 Q1013
较旧的数据

下载我们的应用程序

在您的手机和平板电脑上轻松访问所有航空天气。
有许多网站上没有的功能,如离线支持和个人机场列表。

Studio Eveline

Benalmádena
España

我们和第三方通过cookies跟踪您在我们网站上的上网行为。如果您继续,我们认为您同意我们的cookie政策。 了解更多